星链-4569 (STARLINK-4569 )

导读 | 豆包AI

STARLINK-4569是美国太空探索技术公司(SpaceX)星链(Starlink)项目的卫星,于2022年8月31日发射升空,隶属于美国。星链项目旨在构建全球卫星互联网星座,该卫星入轨后为全球提供低延迟、高速率的宽带互联网服务,是星链大规模星座部署中的组成单元,助力完成全球网络覆盖目标。

基本信息
目录编号:
53687
目录名称:
STARLINK-4569
国际标识:
2022-105AR
轨道中心:
EARTH
卫星名称:
星链-4569
卫星全名:
星链-4569 (STARLINK-4569 )
卫星状态:
在轨 (已飞行1337 天)
发射日期:
2022-08-31 UTC
国别 :
美国 (US)
星等 :
--
轨道信息
数据来源 国际轨道数据
星历时间: 2026-04-29T13:03:53+0800
8小时前
查看轨道信息
半长轴: 6927.694km
偏心率: 0.0002521
轨道倾角: 97.560°
近地点辐角 73.213°
升交点赤经 0.930°
平近点角 286.937°
近地点: 547.81km
远地点: 551.304km
周期: 95.641分钟
每日圈数: 15.056352
详细信息
固有亮度:
5
最大亮度:
2.5
卫星平台:
Starlink v1.5
覆盖范围:
全球
运营商:
太空探索技术公司
运营商所在国:
美国
制造商(研发单位):
太空探索技术公司
制造商所在国:
美国
使用方式:
暂无
卫星简介
星链(Starlink)计划是由太空探索技术公司(SpaceX)提出的一个巨型低轨卫星互联网星座项目,计划在2019年至2024年间在太空搭建由约1.2万颗卫星组成的“星链”网络,其中1584颗将部署在地球上空550千米处的近地轨道,并从2020年开始工作。该卫星仍在工作。
2D轨道图
3D轨道图
轨道高度分析图
轨道倾角分析图
轨道综合分析图
查看轨道综合分析图